SL-16 DEB, 22354

Orbit data source: Space-Track

SL-16 DEB, 22354 is space debris in LEO originally from a launch on Fri, 25 Dec 1992 UTC launched from the Tyuratam Missile And Space Complex (TTMTR). Debris objects in space refer to the collection of defunct objects orbiting the Earth. Examples of debris include non-operational satellites, rocket bodies, and fragments generated from explosions, collisions, or faulty payload assembly.

Loading next visibility...
Identifier
22354, 1992-093AT
Orbit
LEO
Country
Flag of CISCIS
Related business
Manufacturer
Unknown
Mission
Spacecraft
Bus & Motor
Unknown
Mass
Unknown
Launch date (UTC)
1992-12-25 (33 years ago)
Launch vehicle
Unknown
Launch site
Tyuratam Missile And Space Complex (TTMTR)
Object type
Payload
Rocket body
Debris
Shape & HBR
Unknown shape, 0.7 m
Radar Cross Section
Medium (>0.1 m² and <1 m²)

Expand to show TLE details & history
Last TLE update: 20 hours ago

TLE from 20 hours ago
0 SL-16 DEB
1 22354U 92093AT  25349.97439669  .00000108  00000-0  10738-3 0  9996
2 22354  71.1436 197.7711 0140815 108.6260 356.4666 13.92951303672754
Epoch: 2025-12-15T23:23Z
TLE epoch observation values (Epoch: 2025-12-15T23:23:07.874Z)
Latitude
66.18337°
Longitude
-108.19738°
Altitude
826.653 km
Speed
7.498 km/s
True Right ascension
21h 49m 48s
True Declination
66° 03' 26"
Sunlit
Object was in daylight at epoch
Visualization orbit readout
Latitude
Unknown
Longitude
Unknown
Altitude
Unknown
Speed
Unknown
Apparent Right ascension
Unknown
Apparent Declination
Unknown
Sunlit
N/A
Visualization observer readout
Local Sidereal Time
18:29:53
Azimuth
Unknown
Elevation
Unknown
Doppler factor
Unknown
Orbital elements
Apogee altitude
1,018.954 km
Perigee altitude
813.523 km
Semi-major axis
7,294.375 km
Eccentricity
0.01408
Inclination
71.1436°
RAAN
197.7711°
Arg. of periapsis
108.626°
True anomaly
356.36537°
Mean anomaly
356.4666°
Eccentric anomaly
356.41617°
Mean motion
3.48386 °/min
Orbital period
103.33 mins
BSTAR
0.00010738
Loading maneuver chart data...
Computing Atmospheric mass density...
Loading historical data...
Loading historical data...
Loading historical data...
Loading historical data...
Loading historical data...
Loading historical data...
Loading historical data...

Documentation

Showing up to 5 results
|